Zurück zum Katalog

STARLINK-31485

AktivKommunikationVLEO
NORAD 59308·PAYLOAD·🇺🇸 United States

Gestartet Mar 24, 2024 von Cape Canaveral Space Force Station

Loading…

Nächste Überflüge (nächste 24 Stunden)

TLE

AktuellSource: CelesTrak SupGP

Epoche: Sep 14, 2026, 21:15 UTC

1 59308C 24056N   26257.88590278  .00034270  00000+0  12422-2 0  2576
2 59308  43.0009 242.4870 0001431 263.4879 194.0302 15.27537147    10

Verfolge STARLINK-31485 in Echtzeit mit AllMySat

Download on the App Store